Погода в Америкусе

США     32°04′18″N   84°13′57″W
темп.,
°C
ветер,
м/с
пор.,
м/с
влажн.,
%
обл.,
%
осадки,
мм/ч
давл.,
гПа
погр.,
м
20 апреля, вт
вт2023:00+15с2354100 0.0 101537
02:00+14ссв235987 0.0 101638
05:00+14ссв355870 0.0 1015105
08:00+14всв256557 0.0 1017132
11:00+20юв1247100 0.0 1018696
14:00+19ю125197 0.0 1016772
17:00+22ююз244414 0.0 10141480
20:00+18юз33600 0.0 101430
21 апреля, ср
ср2123:00+15з33660 0.0 101552
02:00+14з35710 0.0 101570
05:00+13з38780 0.0 1015165
08:00+14зсз513750 0.0 1016393
11:00+19зсз69600 0.0 1017869
14:00+20зсз710460 0.0 10171569
17:00+19сз79340 0.0 10171647
20:00+14ссз5103913 0.0 1019455
22 апреля, чт
чт2223:00+10ссз510425 0.0 1022407
02:00+8с39525 0.0 1022285
05:00+6ссв39541 0.0 1023262
08:00+7св37560 0.0 1024230
11:00+13ссв343789 0.0 1025853
14:00+17ссз343116 0.0 10231398
17:00+20сз35321 0.0 10211699
20:00+15сз33524 0.0 102129
23 апреля, пт
пт2323:00+12ссз33543 0.0 102348
02:00+10ссв355338 0.0 102286
05:00+9ссв36545 0.0 1022121
08:00+9св375976 0.0 1024188
11:00+16в444291 0.0 1024633
14:00+20вюв2238100 0.0 10221126
17:00+21юв2241100 0.0 10191069
20:00+17в1151100 0.0 101911
24 апреля, сб
сб2423:00+16всв3450100 0.0 101883
02:00+15юв2362100 0.3 101766
05:00+13ссв3695100 2.5 1015168
08:00+15вюв51394100 3.6 1014565
11:00+19ю61591100 1.9 1014931
14:00+24ююз81478100 3.9 10121287
17:00+22ююз71489100 5.4 1008884
20:00+19юз61291100 38.6 1010663